Regional Weather Roundup
Issued by NWS Sioux Falls, SD

Home | Current Version | Previous Version | Graphics & Text | Print | Product List | Glossary On
Versions: 1 2 3 4 5 6 7 8 9 10 11 12 13 14 15 16 17 18 19 20 21 22 23 24 25 26 27 28 29 30 31 32 33 34 35 36 37 38 39 40 41 42 43 44 45 46 47 48 49 50
000
ASUS43 KFSD 191902
RWRFSD

WEATHER ROUNDUP FOR SE SOUTH DAKOTA/SW MINNESOTA/NW IOWA
NATIONAL WEATHER SERVICE SIOUX FALLS SD
200 PM CDT FRI SEP 19 2014

NOTE: "FAIR" INDICATES FEW OR NO CLOUDS BELOW 12,000 FEET WITH NO
SIGNIFICANT WEATHER AND OR OBSTRUCTIONS TO VISIBILITY.


SDZ038>040-050-052>070-192000-
SOUTHEAST SOUTH DAKOTA

CITY           SKY/WX    TMP DP  RH WIND       PRES   REMARKS
CHAMBERLAIN    PTSUNNY   85  60  43 W9        29.71S
HURON          PTSUNNY   79  64  60 W7        29.66F
MADISON        FAIR      81  66  61 SW15G25   29.70F
MITCHELL       MOSUNNY   83  67  58 W9        29.69S
SIOUX FALLS    MOSUNNY   84  64  50 SW14G29   29.71S
WINNER         FAIR      89  56  32 NW16      29.74S
YANKTON        SUNNY     86  64  48 SW20G29   29.70S
$$

MNZ071-072-080-081-089-090-097-098-192000-
SOUTHWEST MINNESOTA

CITY           SKY/WX    TMP DP  RH WIND       PRES   REMARKS
FAIRMONT       SUNNY     81  57  44 S28G33    29.72F
JACKSON        SUNNY     81  61  50 S25G36    29.72F
LUVERNE        SUNNY     82  64  54 SW22G28   29.72S
MARSHALL       CLOUDY    77  63  61 W17       29.68S
MONTEVIDEO     CLOUDY    72  64  78 S6        29.69S
PIPESTONE      MOSUNNY   81  64  57 SW20G28   29.72R
REDWOOD FALLS  CLOUDY    75  63  66 SW9       29.70F
TRACY          PTSUNNY   76  65  68 SW9       29.71R
WINDOM         SUNNY     81  63  54 S23G35    29.67F
WORTHINGTON    SUNNY     79  64  61 S23G33    29.71F
$$

IAZ001>003-012>014-020>022-031-032-NEZ013-014-SDZ071-192000-
NORTHWEST IOWA

CITY           SKY/WX    TMP DP  RH WIND       PRES   REMARKS
CHEROKEE       SUNNY     81  67  63 S22G31    29.77F
DENISON        SUNNY     77  66  69 S13G26    29.83F
ESTHERVILLE    SUNNY     81  64  56 S26G35    29.73F
LE MARS        SUNNY     82  68  61 S24G31    29.74F
ORANGE CITY    SUNNY     82  64  54 S25G35    29.73F
SHELDON        SUNNY     81  66  61 S23G35    29.72F
SIOUX CITY     SUNNY     85  67  54 S15G23    29.78F
SPENCER        SUNNY     80  64  58 S28G38    29.74F
STORM LAKE     SUNNY     79  68  69 SW21G30   29.80F
$$

ABBREVIATIONS USED IN REMARKS
   TC - TEMPERATURE IN CELSIUS
  WCI - WIND CHILL INDEX
   HX - HEAT INDEX
  VSB - VISIBILITY




USA.gov is the U.S. government's official web portal to all federal, state and local government web resources and services.